| time (UTC) | temp C | wind direction | speed KPH | gust KPH | rain 1hr cm | rain 24hr cm | rain mn cm | humidity % | barometer mb |
| 20260510073914 | 8 | 107 | 4.8 | 6.4 | 0.00 | 0.00 | 0.00 | 66 | 1020.7 |
| 20260510073409 | 8 | 99 | 4.8 | 8.0 | 0.00 | 0.00 | 0.00 | 65 | 1020.5 |
| 20260510072906 | 9 | 97 | 4.8 | 4.8 | 0.00 | 0.00 | 0.00 | 64 | 1020.6 |
| 20260510072403 | 8 | 147 | 3.2 | 4.8 | 0.00 | 0.00 | 0.00 | 66 | 1020.8 |
| 20260510071858 | 8 | 110 | 3.2 | 4.8 | 0.00 | 0.00 | 0.00 | 65 | 1020.6 |
| 20260510071355 | 8 | 126 | 0.0 | 1.6 | 0.00 | 0.00 | 0.00 | 65 | 1020.6 |
| 20260510070854 | 9 | 114 | 1.6 | 4.8 | 0.00 | 0.00 | 0.00 | 64 | 1020.5 |
| 20260510070350 | 8 | 157 | 0.0 | 1.6 | 0.00 | 0.00 | 0.00 | 64 | 1020.5 |
| 20260510065850 | 8 | 144 | 3.2 | 4.8 | 0.00 | 0.00 | 0.00 | 64 | 1020.2 |
| 20260510065347 | 8 | 105 | 4.8 | 6.4 | 0.00 | 0.00 | 0.00 | 64 | 1020.2 |
| 20260510064844 | 9 | 112 | 3.2 | 4.8 | 0.00 | 0.00 | 0.00 | 64 | 1020.3 |
| 20260510064342 | 8 | 102 | 4.8 | 6.4 | 0.00 | 0.00 | 0.00 | 65 | 1020.2 |
| 20260510063838 | 9 | 121 | 4.8 | 4.8 | 0.00 | 0.00 | 0.00 | 62 | 1020.3 |
| 20260510063334 | 10 | 117 | 8.0 | 8.0 | 0.00 | 0.00 | 0.00 | 59 | 1020.6 |
| 20260510062831 | 10 | 101 | 4.8 | 6.4 | 0.00 | 0.00 | 0.00 | 61 | 1020.5 |
| 20260510062327 | 10 | 103 | 4.8 | 6.4 | 0.00 | 0.00 | 0.00 | 60 | 1020.3 |
| 20260510061822 | 9 | 101 | 3.2 | 6.4 | 0.00 | 0.00 | 0.00 | 62 | 1020.5 |
| 20260510061319 | 9 | 116 | 6.4 | 8.0 | 0.00 | 0.00 | 0.00 | 63 | 1020.2 |
| 20260510060815 | 10 | 113 | 3.2 | 8.0 | 0.00 | 0.00 | 0.00 | 62 | 1020.3 |
| 20260510060313 | 10 | 114 | 6.4 | 12.9 | 0.00 | 0.00 | 0.00 | 60 | 1020.2 |
| 20260510055809 | 10 | 108 | 9.7 | 9.7 | 0.00 | 0.00 | 0.00 | 59 | 1020.5 |
| 20260510055308 | 10 | 107 | 4.8 | 14.5 | 0.00 | 0.00 | 0.00 | 58 | 1020.3 |
| 20260510054807 | 11 | 93 | 4.8 | 9.7 | 0.00 | 0.00 | 0.00 | 58 | 1020.5 |
| 20260510054303 | 10 | 106 | 6.4 | 8.0 | 0.00 | 0.00 | 0.00 | 59 | 1020.1 |
| 20260510053758 | 10 | 108 | 4.8 | 6.4 | 0.00 | 0.00 | 0.00 | 60 | 1020.2 |
| 20260510053254 | 10 | 95 | 4.8 | 6.4 | 0.00 | 0.00 | 0.00 | 60 | 1020.3 |
| 20260510052750 | 10 | 112 | 4.8 | 4.8 | 0.00 | 0.00 | 0.00 | 61 | 1020.2 |
| 20260510052246 | 10 | 101 | 4.8 | 8.0 | 0.00 | 0.00 | 0.00 | 59 | 1020.0 |
| 20260510051742 | 10 | 101 | 3.2 | 6.4 | 0.00 | 0.00 | 0.00 | 60 | 1019.9 |
| 20260510051239 | 10 | 121 | 3.2 | 4.8 | 0.00 | 0.00 | 0.00 | 59 | 1020.0 |
| 20260510050736 | 11 | 101 | 8.0 | 8.0 | 0.00 | 0.00 | 0.00 | 58 | 1020.0 |
| 20260510050233 | 11 | 114 | 6.4 | 11.3 | 0.00 | 0.00 | 0.00 | 56 | 1020.0 |
| 20260510045730 | 11 | 83 | 6.4 | 8.0 | 0.00 | 0.00 | 0.00 | 56 | 1020.0 |
| 20260510045226 | 11 | 104 | 4.8 | 8.0 | 0.00 | 0.00 | 0.00 | 54 | 1019.8 |
| 20260510044723 | 12 | 99 | 4.8 | 8.0 | 0.00 | 0.00 | 0.00 | 51 | 1019.9 |
| 20260510044221 | 12 | 85 | 6.4 | 11.3 | 0.00 | 0.00 | 0.00 | 51 | 1019.9 |
| 20260510043715 | 12 | 107 | 6.4 | 8.0 | 0.00 | 0.00 | 0.00 | 53 | 1019.7 |
| 20260510043213 | 12 | 119 | 6.4 | 11.3 | 0.00 | 0.00 | 0.00 | 50 | 1019.7 |
| 20260510042710 | 12 | 103 | 8.0 | 16.1 | 0.00 | 0.00 | 0.00 | 50 | 1019.9 |
| 20260510042206 | 12 | 104 | 8.0 | 12.9 | 0.00 | 0.00 | 0.00 | 52 | 1019.8 |
| 20260510041703 | 12 | 95 | 9.7 | 11.3 | 0.00 | 0.00 | 0.00 | 52 | 1019.8 |
| 20260510041201 | 12 | 120 | 6.4 | 11.3 | 0.00 | 0.00 | 0.00 | 52 | 1019.6 |
| 20260510040657 | 12 | 119 | 8.0 | 11.3 | 0.00 | 0.00 | 0.00 | 52 | 1019.6 |
| 20260510040154 | 12 | 114 | 9.7 | 14.5 | 0.00 | 0.00 | 0.00 | 51 | 1019.5 |
| 20260510035649 | 12 | 118 | 16.1 | 16.1 | 0.00 | 0.00 | 0.00 | 51 | 1019.1 |
| 20260510035145 | 13 | 109 | 8.0 | 11.3 | 0.00 | 0.00 | 0.00 | 49 | 1019.3 |
| 20260510034642 | 13 | 90 | 8.0 | 11.3 | 0.00 | 0.00 | 0.00 | 49 | 1019.3 |
| 20260510034139 | 13 | 100 | 4.8 | 11.3 | 0.00 | 0.00 | 0.00 | 48 | 1019.2 |
| 20260510033635 | 13 | 95 | 4.8 | 14.5 | 0.00 | 0.00 | 0.00 | 48 | 1019.0 |
| 20260510033133 | 13 | 110 | 6.4 | 12.9 | 0.00 | 0.00 | 0.00 | 49 | 1018.9 |
| 20260510032629 | 13 | 105 | 9.7 | 16.1 | 0.00 | 0.00 | 0.00 | 48 | 1018.9 |
| 20260510032125 | 14 | 112 | 6.4 | 17.7 | 0.00 | 0.00 | 0.00 | 47 | 1019.2 |
| 20260510031620 | 14 | 80 | 4.8 | 14.5 | 0.00 | 0.00 | 0.00 | 47 | 1018.9 |
| 20260510031117 | 15 | 99 | 8.0 | 14.5 | 0.00 | 0.00 | 0.00 | 47 | 1018.9 |
| 20260510030611 | 15 | 112 | 6.4 | 12.9 | 0.00 | 0.00 | 0.00 | 45 | 1019.0 |
| 20260510030109 | 15 | 121 | 4.8 | 9.7 | 0.00 | 0.00 | 0.00 | 46 | 1018.8 |
| 20260510025606 | 15 | 110 | 8.0 | 12.9 | 0.00 | 0.00 | 0.00 | 46 | 1018.9 |
| 20260510025104 | 15 | 109 | 3.2 | 8.0 | 0.00 | 0.00 | 0.00 | 45 | 1018.8 |
| 20260510024600 | 16 | 99 | 4.8 | 9.7 | 0.00 | 0.00 | 0.00 | 44 | 1018.8 |
| 20260510024056 | 16 | 121 | 4.8 | 8.0 | 0.00 | 0.00 | 0.00 | 43 | 1018.7 |
| 20260510023553 | 16 | 144 | 3.2 | 8.0 | 0.00 | 0.00 | 0.00 | 42 | 1018.8 |
| 20260510023050 | 17 | 106 | 3.2 | 4.8 | 0.00 | 0.00 | 0.00 | 42 | 1018.5 |
| 20260510022549 | 17 | 106 | 4.8 | 4.8 | 0.00 | 0.00 | 0.00 | 41 | 1018.6 |
| 20260510022044 | 17 | 114 | 1.6 | 1.6 | 0.00 | 0.00 | 0.00 | 40 | 1018.6 |
| 20260510021541 | 18 | 198 | 0.0 | 0.0 | 0.00 | 0.00 | 0.00 | 40 | 1018.3 |
| 20260510021038 | 19 | 195 | 0.0 | 4.8 | 0.00 | 0.00 | 0.00 | 36 | 1018.7 |
| 20260510020532 | 20 | 251 | 0.0 | 4.8 | 0.00 | 0.00 | 0.00 | 33 | 1018.3 |
| 20260510020028 | 20 | 270 | 1.6 | 4.8 | 0.00 | 0.00 | 0.00 | 32 | 1018.7 |
| 20260510015524 | 20 | 290 | 3.2 | 4.8 | 0.00 | 0.00 | 0.00 | 31 | 1018.5 |
| 20260510015020 | 20 | 278 | 4.8 | 4.8 | 0.00 | 0.00 | 0.00 | 31 | 1018.3 |
| 20260510014517 | 20 | 278 | 0.0 | 4.8 | 0.00 | 0.00 | 0.00 | 31 | 1018.3 |
| 20260510014014 | 20 | 270 | 3.2 | 6.4 | 0.00 | 0.00 | 0.00 | 31 | 1018.5 |
| 20260510013508 | 21 | 247 | 3.2 | 4.8 | 0.00 | 0.00 | 0.00 | 30 | 1018.5 |
| 20260510013005 | 21 | 279 | 0.0 | 3.2 | 0.00 | 0.00 | 0.00 | 29 | 1018.1 |
| 20260510012459 | 21 | 252 | 3.2 | 6.4 | 0.00 | 0.00 | 0.00 | 30 | 1018.2 |
| 20260510011954 | 21 | 8 | 0.0 | 1.6 | 0.00 | 0.00 | 0.00 | 28 | 1018.2 |
| 20260510011449 | 22 | 315 | 3.2 | 3.2 | 0.00 | 0.00 | 0.00 | 28 | 1018.5 |
| 20260510010946 | 21 | 123 | 3.2 | 6.4 | 0.00 | 0.00 | 0.00 | 28 | 1018.2 |
| 20260510010443 | 22 | 7 | 1.6 | 4.8 | 0.00 | 0.00 | 0.00 | 30 | 1018.5 |
| 20260510005940 | 21 | 315 | 4.8 | 4.8 | 0.00 | 0.00 | 0.00 | 29 | 1018.0 |
| 20260510005436 | 21 | 245 | 9.7 | 9.7 | 0.00 | 0.00 | 0.00 | 30 | 1018.5 |
| 20260510004933 | 21 | 246 | 4.8 | 4.8 | 0.00 | 0.00 | 0.00 | 29 | 1018.1 |
| 20260510004430 | 21 | 274 | 4.8 | 8.0 | 0.00 | 0.00 | 0.00 | 29 | 1018.3 |
| 20260510003929 | 21 | 254 | 4.8 | 8.0 | 0.00 | 0.00 | 0.00 | 29 | 1018.3 |
| 20260510003425 | 22 | 258 | 3.2 | 8.0 | 0.00 | 0.00 | 0.00 | 29 | 1018.1 |
| 20260510002924 | 22 | 236 | 4.8 | 6.4 | 0.00 | 0.00 | 0.00 | 29 | 1018.2 |
| 20260510002422 | 21 | 307 | 4.8 | 12.9 | 0.00 | 0.00 | 0.00 | 31 | 1018.2 |
| 20260510001918 | 21 | 323 | 3.2 | 8.0 | 0.00 | 0.00 | 0.00 | 31 | 1018.2 |
| 20260510001416 | 21 | 285 | 6.4 | 12.9 | 0.00 | 0.00 | 0.00 | 32 | 1018.5 |
| 20260510000913 | 21 | 297 | 0.0 | 4.8 | 0.00 | 0.00 | 0.00 | 29 | 1018.2 |
| 20260510000411 | 21 | 257 | 6.4 | 6.4 | 0.00 | 0.00 | 0.00 | 30 | 1018.3 |
| 20260509235905 | 21 | 328 | 4.8 | 8.0 | 0.00 | 0.00 | 0.00 | 29 | 1018.5 |
| 20260509235403 | 21 | 0 | 3.2 | 12.9 | 0.00 | 0.00 | 0.00 | 30 | 1018.2 |
| 20260509234858 | 21 | 10 | 4.8 | 6.4 | 0.00 | 0.00 | 0.00 | 31 | 1018.1 |
| 20260509234356 | 21 | 283 | 0.0 | 14.5 | 0.00 | 0.00 | 0.00 | 30 | 1018.2 |
| 20260509233854 | 22 | 234 | 4.8 | 11.3 | 0.00 | 0.00 | 0.00 | 31 | 1018.2 |
| 20260509233351 | 21 | 282 | 9.7 | 11.3 | 0.00 | 0.00 | 0.00 | 31 | 1018.5 |
| 20260509232846 | 21 | 79 | 8.0 | 8.0 | 0.00 | 0.00 | 0.00 | 30 | 1018.3 |
| 20260509232345 | 21 | 273 | 4.8 | 17.7 | 0.00 | 0.00 | 0.00 | 31 | 1018.5 |
| 20260509231840 | 21 | 90 | 0.0 | 6.4 | 0.00 | 0.00 | 0.00 | 30 | 1018.7 |
| 20260509231337 | 20 | 94 | 4.8 | 6.4 | 0.00 | 0.00 | 0.00 | 30 | 1018.3 |
| 20260509230835 | 20 | 353 | 9.7 | 11.3 | 0.00 | 0.00 | 0.00 | 30 | 1018.3 |
| 20260509230332 | 21 | 225 | 3.2 | 11.3 | 0.00 | 0.00 | 0.00 | 30 | 1018.7 |
| 20260509225827 | 21 | 347 | 4.8 | 8.0 | 0.00 | 0.00 | 0.00 | 30 | 1018.8 |
| 20260509225324 | 21 | 15 | 0.0 | 8.0 | 0.00 | 0.00 | 0.00 | 32 | 1018.8 |
| 20260509224821 | 21 | 180 | 0.0 | 12.9 | 0.00 | 0.00 | 0.00 | 30 | 1019.0 |
| 20260509224316 | 20 | 16 | 0.0 | 4.8 | 0.00 | 0.00 | 0.00 | 32 | 1019.0 |
| 20260509223813 | 21 | 282 | 14.5 | 14.5 | 0.00 | 0.00 | 0.00 | 32 | 1019.0 |
| 20260509223310 | 20 | 310 | 6.4 | 12.9 | 0.00 | 0.00 | 0.00 | 35 | 1019.1 |
| 20260509222807 | 21 | 270 | 4.8 | 14.5 | 0.00 | 0.00 | 0.00 | 33 | 1018.9 |
| 20260509222306 | 21 | 234 | 0.0 | 8.0 | 0.00 | 0.00 | 0.00 | 35 | 1019.0 |
| 20260509221758 | 20 | 141 | 4.8 | 12.9 | 0.00 | 0.00 | 0.00 | 32 | 1019.0 |
| 20260509221256 | 20 | 46 | 6.4 | 8.0 | 0.00 | 0.00 | 0.00 | 31 | 1019.0 |
| 20260509220751 | 20 | 319 | 0.0 | 9.7 | 0.00 | 0.00 | 0.00 | 34 | 1019.1 |
| 20260509220248 | 20 | 343 | 6.4 | 11.3 | 0.00 | 0.00 | 0.00 | 33 | 1019.1 |
| 20260509215743 | 20 | 225 | 4.8 | 12.9 | 0.00 | 0.00 | 0.00 | 32 | 1019.1 |
| 20260509215240 | 20 | 267 | 6.4 | 11.3 | 0.00 | 0.00 | 0.00 | 33 | 1019.3 |
| 20260509214737 | 20 | 323 | 17.7 | 19.3 | 0.00 | 0.00 | 0.00 | 34 | 1019.5 |
| 20260509214234 | 20 | 243 | 4.8 | 11.3 | 0.00 | 0.00 | 0.00 | 35 | 1019.2 |
| 20260509213731 | 20 | 338 | 4.8 | 14.5 | 0.00 | 0.00 | 0.00 | 34 | 1019.7 |
| 20260509213226 | 20 | 357 | 4.8 | 11.3 | 0.00 | 0.00 | 0.00 | 34 | 1019.5 |
| 20260509212724 | 20 | 347 | 0.0 | 6.4 | 0.00 | 0.00 | 0.00 | 33 | 1019.6 |
| 20260509212221 | 20 | 96 | 3.2 | 12.9 | 0.00 | 0.00 | 0.00 | 34 | 1019.3 |
| 20260509211717 | 20 | 346 | 6.4 | 9.7 | 0.00 | 0.00 | 0.00 | 34 | 1019.8 |
| 20260509211214 | 20 | 306 | 0.0 | 4.8 | 0.00 | 0.00 | 0.00 | 34 | 1019.6 |
| 20260509210710 | 20 | 282 | 3.2 | 6.4 | 0.00 | 0.00 | 0.00 | 36 | 1019.7 |
| 20260509210208 | 20 | 262 | 6.4 | 11.3 | 0.00 | 0.00 | 0.00 | 36 | 1019.7 |
| 20260509205707 | 19 | 252 | 6.4 | 12.9 | 0.00 | 0.00 | 0.00 | 35 | 1019.5 |
| 20260509205207 | 20 | 337 | 4.8 | 8.0 | 0.00 | 0.00 | 0.00 | 34 | 1019.7 |
| 20260509204703 | 19 | 198 | 0.0 | 11.3 | 0.00 | 0.00 | 0.00 | 35 | 1019.6 |
| 20260509204159 | 20 | 314 | 8.0 | 11.3 | 0.00 | 0.00 | 0.00 | 36 | 1019.7 |
| 20260509203655 | 18 | 15 | 9.7 | 19.3 | 0.00 | 0.00 | 0.00 | 34 | 1019.9 |
| 20260509203154 | 18 | 190 | 0.0 | 8.0 | 0.00 | 0.00 | 0.00 | 34 | 1019.9 |
| 20260509202649 | 18 | 292 | 6.4 | 19.3 | 0.00 | 0.00 | 0.00 | 34 | 1020.0 |
| 20260509202144 | 19 | 17 | 9.7 | 12.9 | 0.00 | 0.00 | 0.00 | 35 | 1019.9 |
| 20260509201640 | 19 | 326 | 4.8 | 8.0 | 0.00 | 0.00 | 0.00 | 35 | 1019.9 |
| 20260509201137 | 18 | 258 | 4.8 | 12.9 | 0.00 | 0.00 | 0.00 | 36 | 1020.1 |
| 20260509200633 | 19 | 301 | 8.0 | 8.0 | 0.00 | 0.00 | 0.00 | 37 | 1020.0 |
| 20260509200129 | 19 | 237 | 3.2 | 8.0 | 0.00 | 0.00 | 0.00 | 39 | 1019.9 |
| 20260509195625 | 18 | 60 | 4.8 | 17.7 | 0.00 | 0.00 | 0.00 | 35 | 1020.0 |
| 20260509195120 | 18 | 318 | 4.8 | 16.1 | 0.00 | 0.00 | 0.00 | 36 | 1019.9 |
| 20260509194619 | 18 | 6 | 1.6 | 14.5 | 0.00 | 0.00 | 0.00 | 35 | 1020.1 |
| 20260509194117 | 17 | 203 | 0.0 | 17.7 | 0.00 | 0.00 | 0.00 | 36 | 1020.1 |
| 20260509193612 | 18 | 261 | 0.0 | 8.0 | 0.00 | 0.00 | 0.00 | 36 | 1019.9 |
| 20260509193108 | 18 | 338 | 4.8 | 6.4 | 0.00 | 0.00 | 0.00 | 36 | 1020.2 |
| 20260509192605 | 17 | 180 | 0.0 | 11.3 | 0.00 | 0.00 | 0.00 | 36 | 1020.2 |
| 20260509192100 | 17 | 61 | 8.0 | 11.3 | 0.00 | 0.00 | 0.00 | 36 | 1020.3 |
| 20260509191555 | 17 | 43 | 6.4 | 9.7 | 0.00 | 0.00 | 0.00 | 37 | 1020.5 |
| 20260509191051 | 17 | 290 | 3.2 | 8.0 | 0.00 | 0.00 | 0.00 | 39 | 1020.3 |
| 20260509190548 | 17 | 330 | 8.0 | 9.7 | 0.00 | 0.00 | 0.00 | 39 | 1020.3 |
| 20260509190046 | 17 | 300 | 3.2 | 8.0 | 0.00 | 0.00 | 0.00 | 37 | 1020.5 |
| 20260509185543 | 17 | 268 | 9.7 | 9.7 | 0.00 | 0.00 | 0.00 | 37 | 1020.7 |
| 20260509185039 | 17 | 288 | 3.2 | 11.3 | 0.00 | 0.00 | 0.00 | 38 | 1020.3 |
| 20260509184538 | 17 | 48 | 3.2 | 6.4 | 0.00 | 0.00 | 0.00 | 36 | 1020.3 |
| 20260509184033 | 17 | 180 | 1.6 | 6.4 | 0.00 | 0.00 | 0.00 | 35 | 1020.6 |
| 20260509183529 | 16 | 207 | 4.8 | 8.0 | 0.00 | 0.00 | 0.00 | 36 | 1020.6 |
| 20260509183025 | 16 | 165 | 0.0 | 9.7 | 0.00 | 0.00 | 0.00 | 37 | 1020.6 |
| 20260509182521 | 16 | 315 | 6.4 | 12.9 | 0.00 | 0.00 | 0.00 | 38 | 1020.6 |
| 20260509182019 | 16 | 308 | 8.0 | 8.0 | 0.00 | 0.00 | 0.00 | 39 | 1020.5 |
| 20260509181517 | 16 | 274 | 8.0 | 11.3 | 0.00 | 0.00 | 0.00 | 39 | 1020.5 |
| 20260509181014 | 17 | 296 | 4.8 | 4.8 | 0.00 | 0.00 | 0.00 | 37 | 1020.6 |
| 20260509180509 | 16 | 207 | 4.8 | 6.4 | 0.00 | 0.00 | 0.00 | 39 | 1020.6 |
| 20260509180008 | 17 | 201 | 3.2 | 4.8 | 0.00 | 0.00 | 0.00 | 38 | 1020.7 |
| 20260509175502 | 16 | 245 | 3.2 | 4.8 | 0.00 | 0.00 | 0.00 | 40 | 1020.7 |
| 20260509174959 | 15 | 340 | 4.8 | 9.7 | 0.00 | 0.00 | 0.00 | 39 | 1020.9 |
| 20260509174456 | 16 | 17 | 4.8 | 4.8 | 0.00 | 0.00 | 0.00 | 38 | 1020.8 |
| 20260509173950 | 15 | 226 | 9.7 | 11.3 | 0.00 | 0.00 | 0.00 | 39 | 1021.0 |
| 20260509173445 | 15 | 0 | 4.8 | 11.3 | 0.00 | 0.00 | 0.00 | 39 | 1021.0 |
| 20260509172942 | 15 | 341 | 3.2 | 6.4 | 0.00 | 0.00 | 0.00 | 41 | 1020.7 |
| 20260509172439 | 15 | 285 | 4.8 | 11.3 | 0.00 | 0.00 | 0.00 | 39 | 1020.9 |
| 20260509171934 | 15 | 307 | 8.0 | 8.0 | 0.00 | 0.00 | 0.00 | 42 | 1020.8 |
| 20260509171431 | 15 | 274 | 3.2 | 9.7 | 0.00 | 0.00 | 0.00 | 39 | 1020.7 |
| 20260509170927 | 15 | 337 | 4.8 | 9.7 | 0.00 | 0.00 | 0.00 | 39 | 1021.0 |
| 20260509170423 | 15 | 270 | 0.0 | 8.0 | 0.00 | 0.00 | 0.00 | 39 | 1020.9 |
| 20260509165918 | 14 | 293 | 4.8 | 6.4 | 0.00 | 0.00 | 0.00 | 43 | 1020.9 |
| 20260509165413 | 15 | 300 | 3.2 | 9.7 | 0.00 | 0.00 | 0.00 | 40 | 1020.9 |
| 20260509164908 | 13 | 311 | 4.8 | 8.0 | 0.00 | 0.00 | 0.00 | 40 | 1020.6 |
| 20260509164405 | 14 | 322 | 4.8 | 8.0 | 0.00 | 0.00 | 0.00 | 42 | 1021.0 |
| 20260509163901 | 14 | 90 | 0.0 | 3.2 | 0.00 | 0.00 | 0.00 | 40 | 1020.9 |
| 20260509163358 | 14 | 50 | 6.4 | 6.4 | 0.00 | 0.00 | 0.00 | 40 | 1021.0 |
| 20260509162857 | 13 | 291 | 4.8 | 6.4 | 0.00 | 0.00 | 0.00 | 40 | 1020.9 |
| 20260509162356 | 13 | 90 | 0.0 | 8.0 | 0.00 | 0.00 | 0.00 | 42 | 1020.8 |
| 20260509161852 | 13 | 66 | 3.2 | 4.8 | 0.00 | 0.00 | 0.00 | 43 | 1021.0 |
| 20260509161348 | 13 | 128 | 3.2 | 8.0 | 0.00 | 0.00 | 0.00 | 43 | 1021.2 |
| 20260509160844 | 12 | 99 | 3.2 | 6.4 | 0.00 | 0.00 | 0.00 | 46 | 1020.9 |
| 20260509160340 | 12 | 121 | 3.2 | 4.8 | 0.00 | 0.00 | 0.00 | 45 | 1021.1 |
| 20260509155835 | 12 | 57 | 3.2 | 6.4 | 0.00 | 0.00 | 0.00 | 47 | 1021.2 |
| 20260509155332 | 12 | 33 | 3.2 | 4.8 | 0.00 | 0.00 | 0.00 | 49 | 1021.0 |
| 20260509154828 | 11 | 12 | 1.6 | 4.8 | 0.00 | 0.00 | 0.00 | 52 | 1021.1 |
| 20260509154325 | 12 | 63 | 3.2 | 3.2 | 0.00 | 0.00 | 0.00 | 51 | 1020.8 |
| 20260509153822 | 11 | 41 | 3.2 | 4.8 | 0.00 | 0.00 | 0.00 | 52 | 1021.1 |
| 20260509153319 | 11 | 327 | 3.2 | 3.2 | 0.00 | 0.00 | 0.00 | 51 | 1021.1 |
| 20260509152815 | 12 | 343 | 4.8 | 6.4 | 0.00 | 0.00 | 0.00 | 50 | 1021.1 |
| 20260509152311 | 11 | 294 | 0.0 | 6.4 | 0.00 | 0.00 | 0.00 | 54 | 1020.8 |
| 20260509151809 | 11 | 278 | 0.0 | 4.8 | 0.00 | 0.00 | 0.00 | 56 | 1021.0 |
| 20260509151305 | 11 | 357 | 4.8 | 4.8 | 0.00 | 0.00 | 0.00 | 56 | 1020.9 |
| 20260509150804 | 11 | 29 | 1.6 | 4.8 | 0.00 | 0.00 | 0.00 | 56 | 1020.8 |
| 20260509150301 | 11 | 321 | 3.2 | 6.4 | 0.00 | 0.00 | 0.00 | 59 | 1020.9 |
| 20260509145758 | 10 | 109 | 3.2 | 4.8 | 0.00 | 0.00 | 0.00 | 58 | 1020.7 |
| 20260509145258 | 10 | 45 | 3.2 | 4.8 | 0.00 | 0.00 | 0.00 | 62 | 1020.8 |
| 20260509144754 | 9 | 300 | 0.0 | 4.8 | 0.00 | 0.00 | 0.00 | 62 | 1020.8 |
| 20260509144251 | 9 | 90 | 1.6 | 4.8 | 0.00 | 0.00 | 0.00 | 62 | 1020.8 |
| 20260509143748 | 9 | 315 | 3.2 | 4.8 | 0.00 | 0.00 | 0.00 | 62 | 1020.8 |
| 20260509143246 | 10 | 102 | 4.8 | 4.8 | 0.00 | 0.00 | 0.00 | 59 | 1020.8 |
| 20260509142742 | 8 | 285 | 0.0 | 1.6 | 0.00 | 0.00 | 0.00 | 63 | 1020.9 |
| 20260509142238 | 8 | 0 | 4.8 | 4.8 | 0.00 | 0.00 | 0.00 | 63 | 1020.8 |
| 20260509141734 | 8 | 11 | 1.6 | 6.4 | 0.00 | 0.00 | 0.00 | 63 | 1020.9 |
| 20260509141231 | 8 | 113 | 4.8 | 6.4 | 0.00 | 0.00 | 0.00 | 63 | 1020.5 |
| 20260509140728 | 7 | 244 | 9.7 | 9.7 | 0.00 | 0.00 | 0.00 | 64 | 1020.9 |
| 20260509140225 | 7 | 68 | 4.8 | 8.0 | 0.00 | 0.00 | 0.00 | 65 | 1020.5 |
| 20260509135722 | 8 | 82 | 0.0 | 6.4 | 0.00 | 0.00 | 0.00 | 63 | 1020.3 |
| 20260509135220 | 7 | 274 | 4.8 | 8.0 | 0.00 | 0.00 | 0.00 | 65 | 1020.3 |
| 20260509134717 | 7 | 73 | 6.4 | 9.7 | 0.00 | 0.00 | 0.00 | 65 | 1020.3 |
| 20260509134214 | 7 | 81 | 3.2 | 4.8 | 0.00 | 0.00 | 0.00 | 63 | 1020.2 |
| 20260509133711 | 7 | 35 | 0.0 | 6.4 | 0.00 | 0.00 | 0.00 | 63 | 1020.3 |
| 20260509133208 | 7 | 106 | 3.2 | 6.4 | 0.00 | 0.00 | 0.00 | 62 | 1020.1 |
| 20260509132707 | 7 | 270 | 4.8 | 8.0 | 0.00 | 0.00 | 0.00 | 64 | 1019.9 |
| 20260509132205 | 6 | 164 | 4.8 | 8.0 | 0.00 | 0.00 | 0.00 | 66 | 1020.1 |
| 20260509131701 | 6 | 112 | 4.8 | 8.0 | 0.00 | 0.00 | 0.00 | 65 | 1019.7 |
| 20260509131158 | 5 | 106 | 0.0 | 4.8 | 0.00 | 0.00 | 0.00 | 67 | 1019.7 |
| 20260509130653 | 6 | 108 | 8.0 | 8.0 | 0.00 | 0.00 | 0.00 | 65 | 1019.8 |
| 20260509130150 | 6 | 103 | 6.4 | 6.4 | 0.00 | 0.00 | 0.00 | 64 | 1019.6 |
| 20260509125647 | 6 | 98 | 3.2 | 6.4 | 0.00 | 0.00 | 0.00 | 64 | 1019.5 |
| 20260509125143 | 6 | 117 | 12.9 | 14.5 | 0.00 | 0.00 | 0.00 | 65 | 1019.5 |
| 20260509124640 | 5 | 110 | 8.0 | 11.3 | 0.00 | 0.00 | 0.00 | 65 | 1019.5 |
| 20260509124137 | 5 | 129 | 9.7 | 12.9 | 0.00 | 0.00 | 0.00 | 67 | 1019.3 |
| 20260509123635 | 5 | 110 | 6.4 | 8.0 | 0.00 | 0.00 | 0.00 | 67 | 1019.3 |
| 20260509123132 | 5 | 127 | 8.0 | 9.7 | 0.00 | 0.00 | 0.00 | 65 | 1019.1 |
| 20260509122627 | 5 | 74 | 3.2 | 8.0 | 0.00 | 0.00 | 0.00 | 64 | 1018.8 |
| 20260509122124 | 5 | 117 | 6.4 | 8.0 | 0.00 | 0.00 | 0.00 | 67 | 1019.0 |
| 20260509121621 | 5 | 118 | 4.8 | 8.0 | 0.00 | 0.00 | 0.00 | 68 | 1018.9 |
| 20260509121119 | 5 | 142 | 3.2 | 3.2 | 0.00 | 0.00 | 0.00 | 67 | 1018.8 |
| 20260509120617 | 5 | 83 | 4.8 | 4.8 | 0.00 | 0.00 | 0.00 | 68 | 1018.7 |
| 20260509120115 | 5 | 110 | 4.8 | 4.8 | 0.00 | 0.00 | 0.00 | 67 | 1018.9 |
| 20260509115612 | 5 | 105 | 1.6 | 4.8 | 0.00 | 0.00 | 0.00 | 67 | 1018.6 |
| 20260509115109 | 5 | 115 | 8.0 | 9.7 | 0.00 | 0.00 | 0.00 | 67 | 1018.7 |
| 20260509114607 | 5 | 106 | 3.2 | 6.4 | 0.00 | 0.00 | 0.00 | 67 | 1018.7 |
| 20260509114106 | 5 | 95 | 3.2 | 3.2 | 0.00 | 0.00 | 0.00 | 66 | 1018.9 |
| 20260509113604 | 5 | 120 | 0.0 | 3.2 | 0.00 | 0.00 | 0.00 | 66 | 1018.7 |
| 20260509113101 | 5 | 107 | 0.0 | 6.4 | 0.00 | 0.00 | 0.00 | 65 | 1018.6 |
| 20260509112557 | 6 | 151 | 3.2 | 3.2 | 0.00 | 0.00 | 0.00 | 63 | 1018.7 |
| 20260509112054 | 6 | 286 | 0.0 | 0.0 | 0.00 | 0.00 | 0.00 | 62 | 1018.6 |
| 20260509111552 | 6 | 74 | 0.0 | 6.4 | 0.00 | 0.00 | 0.00 | 61 | 1018.5 |
| 20260509111048 | 6 | 90 | 0.0 | 8.0 | 0.00 | 0.00 | 0.00 | 61 | 1018.5 |
| 20260509110545 | 6 | 85 | 6.4 | 8.0 | 0.00 | 0.00 | 0.00 | 61 | 1018.6 |
| 20260509110042 | 6 | 103 | 4.8 | 6.4 | 0.00 | 0.00 | 0.00 | 61 | 1018.7 |
| 20260509105541 | 6 | 144 | 3.2 | 4.8 | 0.00 | 0.00 | 0.00 | 59 | 1018.6 |
| 20260509105038 | 6 | 141 | 4.8 | 4.8 | 0.00 | 0.00 | 0.00 | 62 | 1018.5 |
| 20260509104535 | 5 | 130 | 4.8 | 4.8 | 0.00 | 0.00 | 0.00 | 62 | 1018.6 |
| 20260509104032 | 5 | 114 | 4.8 | 4.8 | 0.00 | 0.00 | 0.00 | 62 | 1018.6 |
| 20260509103529 | 6 | 117 | 3.2 | 4.8 | 0.00 | 0.00 | 0.00 | 62 | 1018.5 |
| 20260509103028 | 6 | 106 | 6.4 | 6.4 | 0.00 | 0.00 | 0.00 | 60 | 1018.3 |
| 20260509102524 | 6 | 111 | 4.8 | 4.8 | 0.00 | 0.00 | 0.00 | 58 | 1018.5 |
| 20260509102021 | 6 | 132 | 3.2 | 4.8 | 0.00 | 0.00 | 0.00 | 60 | 1018.5 |
| 20260509101517 | 7 | 135 | 3.2 | 3.2 | 0.00 | 0.00 | 0.00 | 58 | 1018.5 |
| 20260509101015 | 7 | 124 | 3.2 | 6.4 | 0.00 | 0.00 | 0.00 | 57 | 1018.3 |
| 20260509100512 | 8 | 124 | 4.8 | 6.4 | 0.00 | 0.00 | 0.00 | 53 | 1018.5 |
| 20260509100009 | 7 | 63 | 3.2 | 4.8 | 0.00 | 0.00 | 0.00 | 55 | 1018.2 |
| 20260509095505 | 7 | 59 | 4.8 | 11.3 | 0.00 | 0.00 | 0.00 | 55 | 1018.0 |
| 20260509095003 | 7 | 105 | 0.0 | 4.8 | 0.00 | 0.00 | 0.00 | 57 | 1018.1 |
| 20260509094459 | 7 | 65 | 4.8 | 8.0 | 0.00 | 0.00 | 0.00 | 55 | 1018.1 |
| 20260509093956 | 8 | 52 | 8.0 | 12.9 | 0.00 | 0.00 | 0.00 | 53 | 1018.0 |
| 20260509093454 | 7 | 57 | 3.2 | 6.4 | 0.00 | 0.00 | 0.00 | 54 | 1018.0 |
| 20260509092951 | 9 | 94 | 3.2 | 4.8 | 0.00 | 0.00 | 0.00 | 49 | 1018.0 |
| 20260509092449 | 10 | 257 | 4.8 | 12.9 | 0.00 | 0.00 | 0.00 | 46 | 1017.9 |
| 20260509091948 | 7 | 99 | 3.2 | 8.0 | 0.00 | 0.00 | 0.00 | 54 | 1018.0 |
| 20260509091444 | 7 | 109 | 8.0 | 8.0 | 0.00 | 0.00 | 0.00 | 53 | 1018.0 |
| 20260509090941 | 7 | 103 | 4.8 | 9.7 | 0.00 | 0.00 | 0.00 | 54 | 1018.0 |
| 20260509090439 | 7 | 106 | 3.2 | 4.8 | 0.00 | 0.00 | 0.00 | 57 | 1018.0 |
| 20260509085936 | 7 | 117 | 4.8 | 6.4 | 0.00 | 0.00 | 0.00 | 55 | 1017.9 |
| 20260509085433 | 7 | 99 | 6.4 | 8.0 | 0.00 | 0.00 | 0.00 | 53 | 1017.8 |
| 20260509084929 | 8 | 97 | 6.4 | 8.0 | 0.00 | 0.00 | 0.00 | 51 | 1017.8 |
| 20260509084426 | 8 | 84 | 4.8 | 9.7 | 0.00 | 0.00 | 0.00 | 51 | 1018.1 |
| 20260509083924 | 8 | 110 | 8.0 | 9.7 | 0.00 | 0.00 | 0.00 | 52 | 1017.8 |
| 20260509083421 | 7 | 120 | 8.0 | 12.9 | 0.00 | 0.00 | 0.00 | 52 | 1017.8 |
| 20260509082917 | 7 | 107 | 6.4 | 8.0 | 0.00 | 0.00 | 0.00 | 53 | 1017.8 |
| 20260509082415 | 8 | 105 | 6.4 | 6.4 | 0.00 | 0.00 | 0.00 | 52 | 1017.7 |
| 20260509081911 | 8 | 123 | 4.8 | 6.4 | 0.00 | 0.00 | 0.00 | 51 | 1017.7 |
| 20260509081409 | 8 | 127 | 4.8 | 4.8 | 0.00 | 0.00 | 0.00 | 50 | 1017.8 |
| 20260509080906 | 8 | 116 | 4.8 | 6.4 | 0.00 | 0.00 | 0.00 | 49 | 1017.8 |
| 20260509080404 | 8 | 107 | 6.4 | 6.4 | 0.00 | 0.00 | 0.00 | 49 | 1017.7 |
| 20260509075902 | 8 | 138 | 4.8 | 8.0 | 0.00 | 0.00 | 0.00 | 51 | 1017.8 |
| 20260509075359 | 8 | 107 | 4.8 | 6.4 | 0.00 | 0.00 | 0.00 | 49 | 1017.7 |
| 20260509074856 | 8 | 71 | 3.2 | 6.4 | 0.00 | 0.00 | 0.00 | 50 | 1017.4 |
| 20260509074354 | 8 | 105 | 4.8 | 4.8 | 0.00 | 0.00 | 0.00 | 50 | 1017.6 |